sat.trackr.live / text

‹ back to catalog

STARLINK-5353

NORAD 57370 · 2023-099AU

PAYLOAD ACTIVE UNKNOWN

§ Identity

Operator
Country
US
Launch date
2023-07-16
Launch site
AFETR
Launch vehicle
Mass (kg)
RCS (m²)

Purposes: comms

External: N2YO · Heavens-Above · Gunter

§ Orbital elements

Epoch: 2026-05-24T18:34:28.592256Z

Period
94.27 min
Inclination
43.0030°
Eccentricity
0.0000710
Mean motion
15.27573897 rev/d
Perigee alt
482.6 km
Apogee alt
483.6 km
Semi-major
6,861.2 km
B*
4.2285e-5
RAAN
172.1347°
Arg perigee
281.7771°
Mean anomaly
78.3001°
Rev number
15,783

§ Raw data

STARLINK-53531 57370U 23099AU  26144.77394204  .00000902  00000+0  42285-4 0  99932 57370  43.0030 172.1347 0000710 281.7771  78.3001 15.27573897157837

JSON: /api/v1/satellites/57370 · /tle

For live sub-satellite position, see the globe view (requires WebGL).

§ Visibility from observer

Set your observer location to see the next 7 days of passes ≥ 10°. The values pass through the URL so the page stays shareable.

No JS? Fill the form by hand. The geolocation button needs JavaScript.